Dublin, Ireland

1:07 PM IST on September 22, 2017 (GMT +0100)
Dublin International

Weather History for EIDW - September, 2013

Change the Weather History Date:

Sunday, September 29, 2013

  Actual Average Record
Temperature  
Mean Temperature 58 °F -  
Max Temperature 62 °F 57 °F 71 °F (2011)
Min Temperature 53 °F 46 °F 42 °F (2005)
Degree Days  
Heating Degree Days 8    
Growing Degree Days 8 (Base 50)    
Moisture  
Dew Point 52 °F    
Average Humidity 85    
Maximum Humidity 94    
Minimum Humidity 72    
Precipitation  
Precipitation 0.00 in 0.09 in - ()
Sea Level Pressure  
Sea Level Pressure 29.73 in    
Wind  
Wind Speed 10 mph ()    
Max Wind Speed 18 mph    
Max Gust Speed -    
Visibility 6.8 miles    
Events Rain    
Averages and records for this station are not official NWS values.
T = Trace of Precipitation, MM = Missing Value Source: Averaged Metar Reports

Daily Weather History Graph

Daily Weather History Graph

Search for Another Location

Airport or City:

Trip Planner

Search our weather history database for the weather conditions in past years. The results will help you decide how hot, cold, wet, or windy it might be!

Date:

Astronomy

Sep. 29, 2013 Rise Set
Actual Time 7:23 AM IST 7:06 PM IST
Civil Twilight 6:48 AM IST 7:40 PM IST
Nautical Twilight 6:07 AM IST 8:21 PM IST
Astronomical Twilight 5:25 AM IST 9:03 PM IST
Moon 1:11 AM IST (9/29) 4:29 PM IST (9/29)
Length of Visible Light 12h 52m
Length of Day
11h 43m
Waning Crescent, 29% of the Moon is Illuminated
Sep 29
Waning Crescent
Oct 5
New
Oct 12
First Quarter
Oct 19
Full
Oct 27
Last Quarter

Hourly Weather History & Observations

Time (IST) Temp. Dew Point Humidity Pressure Visibility Wind Dir Wind Speed Gust Speed Precip Events Conditions
12:00 AM 57.2 °F 53.6 °F 88% 29.74 in 6.2 mi ENE 8.1 mph - N/A   Mostly Cloudy
12:30 AM 57.2 °F 53.6 °F 88% 29.74 in 6.2 mi East 5.8 mph - N/A   Mostly Cloudy
1:00 AM 56 °F 54 °F 91% 29.75 in 11 mi East 6.7 mph - - Rain Light Rain
1:00 AM 55.4 °F 53.6 °F 94% 29.74 in 6.2 mi East 8.1 mph - N/A   Mostly Cloudy
1:30 AM 55.4 °F 53.6 °F 94% 29.74 in 6.2 mi East 6.9 mph - N/A   Mostly Cloudy
2:00 AM 55.4 °F 53.6 °F 94% 29.74 in 6.2 mi East 8.1 mph - N/A   Mostly Cloudy
2:30 AM 55.4 °F 53.6 °F 94% 29.74 in 6.2 mi East 8.1 mph - N/A   Mostly Cloudy
3:00 AM 55.4 °F 53.6 °F 94% 29.74 in 6.2 mi East 5.8 mph - N/A   Mostly Cloudy
3:30 AM 55.4 °F 53.6 °F 94% 29.71 in 6.2 mi East 9.2 mph - N/A   Mostly Cloudy
4:00 AM 55.4 °F 53.6 °F 94% 29.71 in 6.2 mi ENE 10.4 mph - N/A   Mostly Cloudy
4:30 AM 55.4 °F 51.8 °F 88% 29.71 in 6.2 mi East 11.5 mph - N/A   Mostly Cloudy
5:00 AM 55.4 °F 50.0 °F 82% 29.71 in 6.2 mi East 12.7 mph - N/A   Mostly Cloudy
5:30 AM 55.4 °F 51.8 °F 88% 29.71 in 6.2 mi East 13.8 mph - N/A   Mostly Cloudy
6:00 AM 55.4 °F 51.8 °F 88% 29.71 in 6.2 mi East 11.5 mph - N/A   Mostly Cloudy
6:30 AM 55.4 °F 51.8 °F 88% 29.71 in 6.2 mi East 9.2 mph - N/A   Mostly Cloudy
7:00 AM 55 °F 50 °F 79% 29.74 in 16 mi East 11.2 mph - -   Scattered Clouds
7:00 AM 55.4 °F 50.0 °F 82% 29.71 in 6.2 mi East 10.4 mph - N/A   Mostly Cloudy
7:30 AM 55.4 °F 50.0 °F 82% 29.71 in - ESE 13.8 mph - N/A   Clear
8:00 AM 55.4 °F 51.8 °F 88% 29.74 in - East 12.7 mph - N/A   Clear
8:30 AM 55.4 °F 50.0 °F 82% 29.74 in 6.2 mi ESE 11.5 mph - N/A   Mostly Cloudy
9:00 AM 57.2 °F 51.8 °F 82% 29.74 in 6.2 mi East 10.4 mph - N/A   Mostly Cloudy
9:30 AM 57.2 °F 51.8 °F 82% 29.74 in 6.2 mi ESE 11.5 mph - N/A   Mostly Cloudy
10:00 AM 57.2 °F 51.8 °F 82% 29.74 in 6.2 mi East 10.4 mph - N/A   Mostly Cloudy
10:30 AM 57.2 °F 51.8 °F 82% 29.74 in 6.2 mi ESE 10.4 mph - N/A   Mostly Cloudy
11:00 AM 59.0 °F 51.8 °F 77% 29.74 in 6.2 mi East 11.5 mph - N/A   Mostly Cloudy
11:30 AM 60.8 °F 51.8 °F 72% 29.74 in 6.2 mi East 16.1 mph - N/A   Mostly Cloudy
12:00 PM 60.8 °F 53.6 °F 77% 29.74 in 6.2 mi East 17.3 mph - N/A   Mostly Cloudy
12:30 PM 60.8 °F 53.6 °F 77% 29.74 in 6.2 mi East 16.1 mph - N/A   Mostly Cloudy
1:00 PM 59 °F 53 °F 74% 29.77 in 11 mi East 15.7 mph - -   Scattered Clouds
1:00 PM 59.0 °F 53.6 °F 82% 29.74 in 6.2 mi East 16.1 mph - N/A   Mostly Cloudy
1:30 PM 59.0 °F 51.8 °F 77% 29.77 in 6.2 mi East 17.3 mph - N/A   Mostly Cloudy
2:00 PM 57.2 °F 53.6 °F 88% 29.74 in 6.2 mi East 17.3 mph - N/A   Mostly Cloudy
2:30 PM 60.8 °F 53.6 °F 77% 29.74 in 6.2 mi East 18.4 mph - N/A   Mostly Cloudy
3:00 PM 59.0 °F 51.8 °F 77% 29.74 in 6.2 mi East 17.3 mph - N/A   Mostly Cloudy
3:30 PM 59.0 °F 51.8 °F 77% 29.74 in 6.2 mi East 18.4 mph - N/A   Mostly Cloudy
4:00 PM 59.0 °F 51.8 °F 77% 29.74 in 6.2 mi East 16.1 mph - N/A   Scattered Clouds
5:00 PM 59.0 °F 51.8 °F 77% 29.74 in 6.2 mi East 15.0 mph - N/A   Scattered Clouds
5:30 PM 57.2 °F 50.0 °F 77% 29.74 in 6.2 mi East 18.4 mph - N/A   Scattered Clouds
6:00 PM 57.2 °F 51.8 °F 82% 29.71 in 6.2 mi East 13.8 mph - N/A   Scattered Clouds
6:30 PM 57.2 °F 51.8 °F 82% 29.71 in 6.2 mi East 12.7 mph - N/A   Scattered Clouds
7:00 PM 57 °F 52 °F 79% 29.73 in 16 mi ENE 11.2 mph - -   Scattered Clouds
7:00 PM 57.2 °F 51.8 °F 82% 29.71 in 6.2 mi East 10.4 mph - N/A   Mostly Cloudy
7:30 PM 55.4 °F 51.8 °F 88% 29.71 in 6.2 mi East 10.4 mph - N/A   Mostly Cloudy
8:00 PM 55.4 °F 53.6 °F 94% 29.71 in 6.2 mi East 8.1 mph - N/A   Mostly Cloudy
8:30 PM 55.4 °F 51.8 °F 88% 29.71 in 6.2 mi East 9.2 mph - N/A   Mostly Cloudy
9:00 PM 55.4 °F 53.6 °F 94% 29.71 in 6.2 mi East 10.4 mph - N/A   Mostly Cloudy
9:30 PM 55.4 °F 53.6 °F 94% 29.74 in 6.2 mi East 8.1 mph - N/A   Mostly Cloudy
10:00 PM 55.4 °F 53.6 °F 94% 29.71 in 6.2 mi East 8.1 mph - N/A   Mostly Cloudy
10:30 PM 55.4 °F 53.6 °F 94% 29.71 in 6.2 mi East 6.9 mph - N/A   Mostly Cloudy
11:00 PM 53.6 °F 51.8 °F 94% 29.71 in 6.2 mi East 5.8 mph - N/A   Mostly Cloudy
11:30 PM 55.4 °F 53.6 °F 94% 29.71 in 6.2 mi East 8.1 mph - N/A   Mostly Cloudy